Theta_e
325 325 326 329 330 330 331 332 332 333 334 335 336 337 339 341 342 342 342 343 344 344 346 348 349 350 349 350 351 351 351 351 350 350 349 349 350 349 349 350 349 349 351 352 353 353 354 354 352 351 350 348 346 344 341 341 337 338 338 338 338 338 337
323 324 325 327 329 330 331 332 332 333 334 335 336 337 338 340 342 342 342 343 344 345 346 347 349 349 350 350 351 351 351 351 351 351 351 350 350 350 350 350 350 349 350 352 353 354 354 353 352 351 349 349 346 343 341 340 337 336 337 336 336 337 337
322 324 324 326 328 329 330 332 332 333 333 334 336 336 337 339 342 342 342 343 343 344 346 347 349 350 350 351 350 350 351 351 350 350 350 350 350 350 350 350 350 350 350 352 353 353 353 352 352 351 349 348 346 342 341 339 338 336 337 336 336 337 336
322 323 324 326 327 329 331 332 333 333 334 334 336 336 337 339 341 343 344 343 343 344 344 346 348 349 350 350 350 350 351 351 351 350 350 351 350 351 350 350 350 350 350 350 352 353 353 352 351 350 352 347 346 342 340 340 339 337 336 337 335 335 337
323 323 324 324 326 328 329 331 332 333 333 334 336 338 338 339 341 343 344 344 344 344 345 346 348 349 351 351 351 351 351 351 351 351 351 351 351 352 351 350 350 350 350 351 351 352 351 350 350 349 348 347 345 342 340 339 339 338 337 337 335 335 335
324 323 323 324 325 327 329 330 332 333 333 333 335 336 338 339 340 342 344 345 345 346 346 347 347 349 349 350 351 351 351 351 352 352 351 351 351 351 351 351 351 350 350 350 352 351 351 350 349 348 347 346 345 343 340 339 339 338 337 337 336 336 335
324 325 325 325 325 326 328 329 331 333 334 334 336 337 339 339 339 341 343 344 345 345 345 346 347 348 348 350 350 351 350 350 351 351 352 351 351 351 351 352 352 351 351 351 351 351 351 350 349 348 347 345 344 343 340 339 339 338 337 336 336 335 336
324 325 326 326 326 327 328 329 330 332 334 334 335 336 337 339 340 340 342 344 345 346 346 346 348 348 349 349 350 349 350 350 351 352 352 351 351 351 351 352 352 352 352 351 351 351 350 350 349 348 347 345 343 343 341 339 339 339 338 336 336 334 336
324 326 326 327 327 328 328 329 330 331 332 333 334 336 337 338 339 340 341 343 345 346 346 347 348 350 350 350 350 349 350 350 351 351 351 351 351 351 352 352 352 353 352 351 351 351 351 350 348 347 346 345 343 342 341 340 339 339 339 337 336 335 334
323 324 326 328 329 329 329 329 330 330 331 332 333 335 336 338 340 341 342 343 345 345 346 347 348 350 351 351 350 350 350 350 351 351 351 351 352 352 352 352 353 354 352 352 352 351 351 350 349 347 345 344 343 341 341 340 339 338 339 338 337 336 335
323 324 325 326 327 329 329 329 329 330 331 332 333 335 337 338 339 340 342 343 344 345 347 348 349 349 350 351 351 351 350 350 350 350 351 351 352 352 353 353 353 353 353 352 352 351 351 350 349 347 345 344 343 341 340 340 339 338 338 339 339 337 336
321 323 325 326 327 328 328 329 330 331 331 333 334 335 336 338 339 341 342 343 344 345 347 348 349 350 350 351 351 351 351 351 350 350 351 352 352 353 353 354 353 353 353 353 352 352 351 350 348 347 345 345 344 342 340 340 340 339 339 339 339 338 337
322 323 324 325 327 328 328 329 330 331 332 333 334 335 337 338 339 340 342 343 344 346 347 348 349 350 350 350 350 351 351 351 351 351 351 352 352 353 353 353 354 353 353 354 353 352 351 350 348 348 347 345 344 343 342 340 340 339 339 339 338 338 337
329 323 324 325 326 326 327 328 330 331 332 333 334 336 337 339 340 340 341 342 344 346 347 349 349 349 350 350 350 350 351 352 352 353 353 353 353 353 353 354 354 354 354 354 353 353 352 351 349 348 347 346 345 344 343 341 340 339 339 339 339 338 337
321 323 324 324 324 325 326 327 330 331 333 334 335 336 337 339 339 340 342 343 344 346 347 349 349 349 350 350 350 350 351 352 353 354 354 354 353 353 353 353 353 354 354 354 353 354 353 352 351 348 346 346 345 344 343 342 341 340 339 339 338 338 337
321 322 323 323 325 325 326 328 330 332 333 334 335 336 337 338 339 340 341 342 344 346 347 349 349 349 349 350 350 351 352 352 353 353 354 354 353 353 353 353 353 353 353 353 354 353 353 352 351 350 347 345 344 344 343 343 342 336 328 331 339 338 338
321 322 323 324 325 326 326 327 329 331 333 334 335 336 338 339 340 341 341 342 344 345 348 349 349 349 350 350 351 352 352 352 353 353 353 353 353 353 353 353 353 353 353 353 353 353 353 353 351 349 348 346 345 343 343 343 342 330 326 328 331 338 338
320 321 321 322 324 325 326 327 328 330 332 334 336 337 338 339 340 341 341 342 343 345 348 350 350 349 350 351 352 352 352 353 353 353 353 353 353 353 353 353 353 352 352 352 352 352 353 352 351 350 349 348 346 344 343 343 333 326 325 327 327 332 340
319 321 322 323 323 325 326 326 328 330 333 335 336 337 339 340 340 341 342 342 344 346 347 349 350 350 350 351 352 353 353 353 353 353 353 353 353 353 353 353 352 352 351 351 352 352 352 351 351 350 349 348 346 345 344 343 331 325 324 325 325 328 335
318 320 322 324 324 325 326 328 329 331 333 335 337 339 340 341 341 342 343 344 344 344 346 347 349 350 350 351 352 353 353 353 353 352 353 353 353 353 353 352 352 352 352 352 352 351 351 351 351 351 350 349 347 346 345 344 329 323 322 322 323 326 334
324 324 322 321 322 324 326 327 328 330 331 334 336 338 339 340 341 342 343 343 343 344 345 346 347 348 350 351 352 353 354 353 353 353 353 353 353 353 352 352 352 351 352 351 351 350 350 350 350 351 350 350 349 347 346 346 326 320 320 320 320 324 329
322 322 325 325 323 324 325 326 328 330 332 336 337 338 339 339 340 341 341 343 343 343 344 345 345 346 348 349 351 353 354 354 353 353 353 353 353 352 352 352 351 351 351 351 351 351 351 351 351 350 350 350 349 348 346 346 322 319 319 318 318 324 336
335 334 326 322 326 328 329 331 331 331 334 336 336 337 338 339 340 340 340 341 342 342 343 343 343 345 346 348 350 352 354 354 354 353 353 353 352 352 352 351 351 352 352 350 350 349 349 349 350 351 350 350 349 347 347 346 325 318 316 316 317 324 338
338 338 338 339 337 328 330 333 333 334 333 333 334 336 338 338 339 339 339 340 341 342 342 342 342 344 345 347 349 351 353 354 354 353 353 353 352 352 352 353 353 352 352 351 350 349 349 350 350 350 350 349 349 348 347 346 326 314 314 314 316 325 337
337 337 338 338 338 339 339 331 333 335 335 334 334 336 339 341 340 339 338 339 340 341 341 341 342 343 344 345 348 350 352 354 354 354 353 353 353 353 352 352 352 353 353 352 352 351 351 350 350 349 350 350 349 339 344 347 328 313 313 313 315 329 336
335 336 338 338 339 338 337 336 333 336 336 335 336 339 341 342 341 340 339 339 340 340 340 342 343 344 345 345 347 350 352 353 354 354 354 353 353 354 353 354 353 353 353 352 352 351 351 350 350 349 349 349 349 348 346 345 331 320 312 312 314 324 336
336 337 337 338 338 340 338 338 336 333 334 336 338 339 342 343 342 341 341 340 340 340 342 343 345 345 345 345 346 348 351 353 354 354 355 355 354 354 354 354 353 353 353 352 352 352 351 350 349 349 349 348 348 348 345 342 329 321 312 311 314 321 326
335 336 337 338 339 337 338 339 339 340 340 340 342 339 342 343 342 341 341 341 341 342 344 345 345 345 345 345 345 347 349 351 354 355 355 355 355 354 353 354 354 353 353 353 352 351 350 349 348 348 348 346 346 346 344 335 325 326 314 312 314 318 322
332 332 333 334 334 336 338 337 338 339 339 341 342 343 340 344 343 342 342 341 342 345 346 346 346 345 345 345 345 346 348 350 352 353 355 355 355 354 353 353 353 353 353 352 351 350 349 348 347 346 344 341 341 341 340 334 329 321 321 311 312 314 319
332 332 333 334 335 336 338 338 339 339 340 341 342 341 341 340 343 344 343 344 346 346 346 346 346 346 346 345 345 346 347 349 351 353 355 355 354 354 353 353 352 352 352 352 351 349 348 346 344 343 341 339 337 337 336 334 332 321 318 316 311 312 314
330 331 332 333 334 336 337 337 337 338 339 340 341 342 341 339 339 340 342 346 347 345 346 346 346 345 345 345 345 346 347 348 350 352 354 355 355 353 352 352 352 351 352 351 350 349 347 344 341 341 339 337 336 334 333 334 333 329 322 317 313 311 312
331 332 333 334 334 336 336 337 336 336 336 337 338 340 340 340 339 339 343 344 347 348 349 349 347 346 345 345 345 346 347 347 349 352 354 354 355 354 354 352 351 351 351 350 349 348 346 340 339 338 337 336 335 333 333 332 331 327 324 321 316 314 312
331 332 332 332 333 335 334 334 333 333 333 333 335 338 340 339 340 340 340 341 346 350 351 350 349 347 347 346 346 347 348 348 350 351 353 354 355 355 354 353 353 351 349 349 348 346 343 339 337 337 336 335 334 333 332 331 329 326 323 322 320 320 318
331 332 332 333 333 334 333 333 332 332 332 332 333 336 338 339 340 340 339 340 342 346 349 350 350 349 349 349 349 349 350 350 354 353 352 353 354 353 352 352 353 351 349 348 348 344 341 339 337 336 336 335 334 333 331 329 327 325 323 321 321 321 319
331 332 333 332 332 332 331 331 331 332 330 327 330 332 335 337 339 339 338 339 341 342 346 348 346 349 349 350 350 350 350 351 350 351 351 352 347 327 330 350 351 350 345 334 347 347 343 340 339 338 338 336 334 332 329 328 326 326 317 322 316 319 320
330 332 332 334 334 333 331 331 331 331 331 331 330 330 333 335 336 337 339 338 339 339 340 340 343 344 345 346 347 348 348 349 350 350 348 340 327 321 313 308 307 328 339 333 326 323 322 322 335 338 338 336 335 335 332 329 331 316 309 307 307 308 311
328 329 331 333 333 333 333 333 334 333 333 333 334 333 333 334 336 337 338 338 338 338 338 338 339 339 337 337 335 335 335 333 334 339 337 334 330 323 319 318 308 299 307 320 323 320 314 314 315 316 323 333 332 320 311 316 309 305 304 303 304 304 305
328 329 331 332 332 332 333 333 334 333 333 333 333 334 336 337 338 337 339 340 339 338 336 334 333 333 334 333 332 332 330 329 328 328 329 329 331 332 330 325 319 310 299 303 308 306 304 306 308 309 311 316 321 320 317 308 304 303 302 303 302 302 301
Wind_Speed
21 19 18 18 18 19 20 20 21 20 19 19 19 20 20 18 18 17 17 18 20 20 19 18 18 17 18 17 17 16 15 14 11 12 11 11 10 10 10 9 10 10 9 9 10 10 10 8 9 10 8 8 8 8 7 7 7 6 6 6 6 6 6
18 19 19 18 19 20 21 21 20 19 18 19 18 20 19 20 18 18 19 19 21 22 20 20 19 18 18 17 15 16 16 15 14 11 10 9 9 8 9 10 10 11 10 10 9 9 8 9 10 9 9 9 9 8 7 7 7 7 7 6 7 6 6
19 19 19 19 19 19 21 19 19 19 19 18 18 18 20 20 20 21 20 19 20 20 18 20 20 19 18 17 16 16 16 14 13 13 13 12 12 12 10 10 10 10 11 10 9 8 8 9 9 9 10 9 9 8 7 7 8 8 7 7 7 7 7
19 20 21 21 21 21 21 21 21 20 19 20 20 21 22 22 20 20 20 21 22 20 20 19 18 18 17 17 16 16 16 15 14 14 14 13 13 11 10 9 9 8 8 10 10 9 8 9 10 10 10 10 9 8 7 9 8 8 7 7 7 7 7
20 20 18 17 19 18 18 18 19 19 20 20 21 22 22 21 21 18 18 19 21 23 23 22 18 18 16 17 14 14 16 16 14 13 13 12 12 11 11 11 10 11 11 9 9 9 9 9 9 10 10 9 9 8 9 8 8 8 7 7 7 7 7
18 17 17 18 18 19 19 19 21 21 21 20 20 19 18 19 17 19 20 19 19 19 18 17 18 18 17 16 15 14 13 14 14 13 13 13 12 12 13 12 11 11 10 11 9 9 10 10 11 11 11 10 10 9 9 9 8 8 8 8 8 7 7
17 18 18 18 19 19 19 20 20 20 20 20 20 19 18 17 20 21 18 18 19 19 19 19 19 17 16 14 15 15 16 15 14 15 13 13 13 13 13 12 12 11 11 8 10 10 11 11 11 11 11 11 11 10 9 9 9 8 8 8 8 7 7
16 17 18 19 19 19 19 19 19 19 18 16 15 15 16 17 17 17 17 19 19 18 18 20 18 17 16 15 15 17 16 16 14 14 13 14 14 14 13 13 12 11 9 11 11 10 11 12 11 11 11 11 11 10 10 10 10 9 8 9 9 8 6
15 18 19 19 19 18 18 18 19 19 19 18 17 17 19 18 17 18 20 19 18 19 20 20 19 17 16 16 16 17 16 15 15 14 15 16 14 15 14 13 12 11 12 12 10 10 11 11 11 11 11 11 11 10 10 11 10 9 9 10 10 10 9
15 14 14 15 16 16 17 17 17 14 14 15 15 15 17 17 18 18 18 18 18 21 21 18 16 16 16 16 16 16 16 16 15 16 16 16 15 16 15 14 12 11 12 11 10 11 10 10 11 11 11 12 11 11 11 11 10 10 10 11 11 10 10
11 12 13 13 15 17 16 15 13 14 15 16 17 17 17 17 17 17 18 17 18 19 18 17 15 16 16 16 16 16 16 16 15 16 17 17 15 17 16 14 13 11 12 11 11 11 10 10 10 11 12 12 13 12 11 11 11 11 11 11 10 10 9
6 9 12 14 16 15 16 15 15 15 15 16 17 17 17 17 17 17 17 19 19 17 16 17 15 16 16 16 16 16 17 16 16 17 17 17 16 16 16 14 13 12 11 12 13 11 11 11 10 11 13 12 12 12 12 11 12 12 12 12 10 9 8
8 11 13 16 16 17 15 13 16 18 18 18 18 17 17 18 18 17 17 19 18 17 17 17 16 16 16 16 17 16 17 17 17 16 16 16 16 14 14 14 14 13 13 12 13 12 12 12 12 11 12 13 12 12 12 12 11 12 12 11 10 9 9
15 13 11 12 13 13 15 16 16 16 17 16 16 16 17 17 18 19 19 19 18 17 16 14 16 16 17 17 17 17 18 17 15 15 15 15 14 14 14 14 14 14 13 12 13 13 13 13 13 12 11 12 12 12 11 11 12 12 11 11 10 9 9
10 14 17 15 12 13 15 16 16 17 18 18 17 17 18 16 16 15 15 16 16 16 18 17 17 17 17 17 17 18 17 15 14 14 14 15 14 14 14 14 13 13 13 13 13 12 13 12 12 12 12 12 12 12 11 12 12 11 11 11 11 9 10
13 14 14 14 15 16 17 19 18 18 18 17 18 19 18 16 16 16 17 16 16 17 17 15 17 17 17 18 19 17 15 15 14 14 14 14 15 15 14 13 13 13 14 14 13 13 12 12 12 12 13 13 13 12 11 12 11 13 18 16 11 10 10
14 15 16 16 16 16 16 16 16 15 16 17 18 19 18 18 18 18 18 16 16 17 16 16 16 17 18 19 18 16 15 15 15 14 15 16 14 13 14 15 13 13 14 13 13 14 13 12 13 13 13 14 14 14 12 12 11 17 17 19 17 12 10
11 11 10 10 11 12 14 15 15 15 17 18 19 19 17 17 16 15 16 16 17 17 15 16 17 18 19 18 15 15 16 16 15 16 16 15 16 15 14 13 13 14 14 14 14 14 12 13 14 14 13 13 13 14 14 13 13 17 19 19 18 15 11
10 10 11 11 11 12 14 15 16 17 18 17 18 17 19 19 16 16 17 17 18 15 15 17 18 18 18 16 15 17 16 16 16 17 16 16 16 14 13 14 14 15 14 16 15 12 13 15 14 14 14 14 14 15 14 12 14 18 20 19 18 18 13
5 7 11 13 15 17 18 15 13 14 17 17 18 20 19 17 18 19 18 18 14 14 15 16 17 16 17 15 16 17 16 16 17 18 18 16 15 14 15 15 17 16 14 12 12 14 15 14 15 14 14 14 15 15 12 12 14 19 19 19 19 19 17
3 2 4 5 5 7 9 11 13 14 13 13 14 14 13 13 15 15 12 11 12 14 16 16 17 16 15 15 15 15 15 16 17 18 16 15 15 15 16 17 16 15 14 13 15 15 15 15 15 15 15 15 14 12 11 11 15 19 20 20 20 22 19
3 2 4 5 5 5 6 11 16 17 17 16 14 14 15 16 16 13 14 13 15 15 15 15 15 15 13 14 15 16 16 17 17 16 15 15 15 16 17 17 16 16 14 13 13 12 11 11 12 14 14 14 13 12 12 11 17 20 21 20 21 23 14
2 2 2 3 3 6 6 2 3 3 3 3 10 13 14 14 13 14 13 13 14 14 15 15 15 15 16 16 16 16 16 16 16 15 15 15 16 17 17 17 16 15 13 14 14 13 13 14 14 13 14 14 13 13 12 10 16 20 20 20 21 18 9
5 6 6 6 6 4 2 5 7 5 7 5 5 7 6 6 8 10 10 12 13 13 14 14 16 16 16 16 16 17 16 16 16 16 16 15 17 18 16 15 13 14 13 14 14 14 15 13 12 12 13 13 13 14 13 11 13 20 19 20 22 17 12
7 6 6 7 8 9 7 6 3 8 10 8 9 9 7 6 7 7 10 11 12 13 13 15 16 15 16 17 16 16 16 15 16 17 17 17 18 17 16 16 15 13 11 12 13 14 12 11 12 12 11 12 13 15 15 12 11 17 18 21 23 20 14
11 11 10 7 6 5 4 5 4 1 6 11 13 10 11 10 9 10 12 12 11 12 14 16 16 16 15 15 14 14 14 15 17 17 18 19 18 16 16 14 12 13 14 13 12 12 12 11 12 13 12 11 12 12 14 11 8 13 19 21 23 23 16
7 6 9 11 11 10 6 5 5 5 6 6 6 2 6 11 13 13 12 11 10 14 17 17 17 16 16 15 14 14 15 15 17 19 19 18 17 15 14 13 14 14 14 14 12 12 11 12 12 12 11 11 11 10 10 10 10 12 20 21 23 24 22
12 12 12 11 12 13 11 9 8 5 6 5 5 0 2 4 8 11 11 12 15 17 17 16 15 14 14 14 15 16 17 17 17 18 17 16 14 14 15 15 14 13 14 12 13 14 13 12 12 11 10 9 9 9 10 10 15 12 17 23 26 24 23
14 14 14 15 17 16 13 10 10 10 10 7 9 8 1 5 7 7 6 10 15 16 13 9 7 7 8 10 13 14 16 16 17 16 13 14 16 17 15 13 13 14 13 13 12 13 13 12 11 10 9 7 7 7 8 9 10 16 14 19 23 24 24
11 11 10 11 9 10 11 9 9 9 10 8 7 6 8 2 6 7 9 13 15 12 11 11 13 12 13 13 13 13 13 14 15 15 13 15 15 15 15 14 15 14 13 14 13 12 12 10 9 9 9 9 7 6 6 7 8 11 18 18 24 24 23
10 10 11 10 10 10 9 9 10 10 9 10 11 8 6 3 3 5 9 12 6 5 7 10 10 11 13 14 14 15 15 14 13 14 15 14 15 15 15 16 15 14 13 13 13 12 12 10 9 10 10 9 9 7 7 7 8 8 12 19 21 22 20
8 8 9 8 8 9 8 8 9 9 10 10 12 10 8 7 5 4 8 5 5 8 9 10 10 12 13 13 13 14 14 14 14 15 16 16 15 17 17 18 17 15 13 13 13 13 12 10 10 9 9 9 8 9 8 8 7 7 7 8 10 11 16
6 7 8 8 8 6 6 7 7 9 9 10 10 9 8 8 6 6 7 8 7 5 7 9 11 12 12 13 14 13 13 15 14 14 15 16 15 15 15 15 15 15 14 14 13 12 11 11 11 10 10 10 9 9 8 8 7 7 7 7 8 8 8
6 5 4 4 6 6 4 4 4 4 4 5 7 7 7 6 7 7 8 7 6 4 4 7 10 11 12 13 12 13 14 15 19 18 14 15 15 14 14 13 15 15 15 16 15 14 13 13 13 13 12 11 10 9 8 7 6 7 8 8 8 8 8
7 6 5 5 4 3 3 3 3 2 2 2 3 5 5 6 6 7 8 8 9 9 5 8 8 9 10 11 11 12 14 15 16 16 15 14 11 4 5 13 15 13 9 4 10 14 17 17 14 12 11 11 11 10 8 7 7 9 10 12 14 14 11
8 9 9 7 5 5 4 5 4 4 4 2 2 3 4 5 5 6 7 7 8 9 10 9 4 5 7 8 9 10 11 11 13 14 14 14 14 13 8 10 10 9 12 10 16 21 18 13 7 7 9 10 9 10 13 13 12 12 15 14 17 17 19
9 9 9 9 8 8 8 7 7 7 7 6 4 3 4 5 6 7 7 7 8 10 9 10 10 8 3 3 5 7 6 3 3 4 8 11 12 13 15 12 13 15 15 19 20 18 21 20 16 12 11 12 9 7 12 10 15 18 16 16 16 17 15
9 9 9 9 9 10 10 10 8 7 7 6 6 6 5 5 5 4 5 5 6 7 9 10 10 10 10 6 5 5 4 5 6 6 7 6 9 13 16 17 17 13 15 19 21 18 16 16 17 16 12 14 15 11 6 10 15 16 16 15 15 14 15
Wind_Direction
199 198 200 200 200 199 199 200 198 197 196 195 194 194 193 192 193 190 194 194 197 199 197 194 195 195 197 199 199 198 198 198 195 197 196 201 202 200 198 198 196 198 196 195 200 200 202 188 194 197 194 197 198 194 187 185 185 184 182 187 183 182 192
202 202 201 200 201 203 203 201 198 198 197 196 195 194 193 193 192 192 195 194 196 197 194 195 195 196 197 199 199 199 197 197 195 194 194 198 201 204 202 201 197 198 198 200 198 200 190 194 192 194 195 197 201 192 186 187 184 185 186 186 184 187 188
204 204 202 199 201 201 203 201 200 199 196 196 195 194 195 195 193 193 192 193 197 199 197 196 195 195 196 197 196 200 200 197 194 191 192 195 198 200 201 201 203 200 201 200 198 196 192 191 195 195 195 197 199 189 188 186 189 189 187 183 190 190 190
205 204 202 201 201 201 201 199 199 199 199 196 194 194 197 196 194 194 192 193 194 195 197 198 196 197 196 196 197 197 199 200 196 193 194 195 196 198 199 202 204 206 201 201 197 193 192 191 193 196 197 199 197 190 184 192 192 191 187 184 195 196 195
208 204 202 201 203 203 203 201 201 201 200 198 197 197 196 196 193 193 195 197 195 196 197 193 194 196 197 196 196 196 197 197 197 196 196 196 195 194 200 203 202 204 206 199 194 191 190 192 194 195 199 200 199 186 190 194 195 189 189 189 194 197 197
205 199 201 202 201 202 201 201 201 200 200 197 198 198 198 195 193 195 197 195 198 201 198 195 197 196 196 196 195 197 196 199 198 196 196 195 192 195 200 204 202 205 204 202 195 195 191 192 195 194 197 200 199 192 190 193 197 191 194 191 199 194 193
200 197 200 201 200 201 201 201 202 202 201 200 198 196 193 190 193 198 194 196 198 196 196 198 199 195 198 193 198 196 195 195 195 197 197 196 197 199 203 204 203 204 205 194 201 192 193 196 197 196 197 198 200 195 190 195 197 195 195 197 201 200 197
199 196 201 200 199 201 200 200 201 201 201 201 196 194 192 195 198 194 194 198 197 198 199 200 196 195 194 195 197 198 196 196 196 196 196 198 198 202 202 204 204 201 197 203 204 193 196 196 196 197 196 200 202 196 194 197 200 196 194 199 202 204 198
202 199 200 199 198 199 199 198 198 198 196 194 192 193 194 194 194 194 198 196 196 197 202 199 197 194 193 195 196 198 197 195 196 194 196 198 200 204 204 204 203 196 199 204 202 199 200 197 196 195 197 202 202 196 198 199 199 199 198 202 201 201 202
204 203 206 202 197 198 198 199 198 193 191 192 194 194 194 194 196 197 197 196 196 201 201 197 195 193 195 197 198 196 196 198 195 195 197 200 202 204 205 203 201 196 200 201 198 199 203 199 197 194 198 203 203 199 199 198 199 200 203 206 203 203 200
208 202 200 197 196 199 199 197 189 189 191 191 193 194 194 195 196 195 197 196 199 204 198 196 193 194 196 196 196 196 199 199 197 198 199 201 201 204 203 203 201 198 200 196 199 200 196 200 196 198 200 204 204 200 200 200 198 201 206 209 208 204 197
210 201 201 197 197 197 196 194 189 191 192 193 194 193 194 195 195 195 195 198 200 198 192 195 193 196 193 194 196 199 199 199 199 200 200 200 203 203 202 201 200 200 201 197 200 198 198 197 197 200 204 208 206 202 202 200 200 203 206 208 206 202 197
198 200 202 198 197 198 195 190 192 193 193 193 193 194 193 193 193 194 196 200 198 195 193 192 191 192 192 194 198 199 200 200 201 199 200 202 203 202 201 202 200 199 201 198 200 199 200 199 200 204 205 208 206 206 203 202 203 206 207 208 204 197 194
194 194 208 211 206 193 190 194 195 193 195 195 196 195 194 194 193 193 194 198 196 193 191 190 191 192 193 193 197 201 201 201 199 198 201 202 202 203 202 201 200 200 199 197 201 203 202 200 201 203 204 206 208 209 204 204 207 207 206 207 201 190 195
208 204 199 197 198 193 194 195 194 195 193 194 193 193 195 195 198 198 200 198 193 190 192 188 188 191 193 195 200 203 200 196 196 199 200 201 202 203 203 202 201 199 198 199 202 203 204 202 200 200 203 207 208 209 205 207 210 206 202 203 198 190 198
204 207 203 196 192 195 198 198 195 194 193 193 191 193 192 194 195 195 196 197 194 195 194 182 189 191 193 197 201 200 194 193 194 197 199 201 203 203 201 201 200 200 200 200 201 202 201 201 201 202 203 205 209 209 208 212 212 207 200 199 193 191 202
203 204 203 199 196 197 198 199 197 194 193 194 193 193 192 194 195 196 197 195 192 194 188 184 190 193 196 201 200 194 190 191 195 195 199 203 202 201 200 200 199 202 202 201 200 201 200 199 201 203 205 207 208 209 212 214 212 202 197 200 190 188 202
215 213 203 196 197 200 199 197 195 193 196 196 195 193 193 195 196 192 197 194 194 193 185 186 190 195 200 202 193 189 190 193 192 196 201 199 202 200 198 198 200 202 203 201 202 202 198 201 203 202 204 208 211 213 214 216 206 194 197 195 187 189 198
208 205 199 192 195 201 204 201 199 197 198 196 195 194 196 194 189 193 197 194 198 185 182 190 194 198 201 197 190 192 192 191 191 198 200 201 200 196 195 198 201 203 202 204 203 197 201 205 202 205 205 207 211 216 215 215 196 194 194 190 182 187 190
282 237 217 210 198 197 200 201 202 202 199 197 197 196 195 189 191 198 196 196 187 179 187 192 199 199 201 194 194 194 192 190 194 198 201 198 195 193 196 199 204 204 202 201 197 202 206 204 205 207 206 207 212 215 213 212 195 193 189 186 175 177 189
209 228 265 275 251 210 199 201 202 198 195 200 201 200 194 196 200 200 195 188 182 188 189 195 197 199 198 196 197 194 192 193 196 200 200 195 193 194 200 202 204 202 200 198 200 203 205 202 205 209 209 210 211 212 210 215 191 188 189 183 169 177 191
335 274 215 197 201 246 244 215 200 193 197 198 192 193 192 198 196 191 196 185 188 188 192 194 197 200 195 198 197 196 195 195 198 200 197 193 194 198 203 203 202 201 199 200 204 206 205 207 210 211 211 212 209 209 213 209 186 189 189 178 170 178 183
1 4 349 303 243 206 179 190 286 283 310 249 200 192 197 200 194 197 188 182 191 189 194 193 198 199 197 199 197 197 196 196 197 197 195 195 197 202 204 203 203 202 196 202 204 202 203 207 207 208 209 210 207 207 212 209 193 189 187 173 165 171 170
5 14 15 16 18 18 317 198 170 169 170 181 215 224 223 216 197 191 185 190 189 189 193 195 202 201 198 200 198 196 195 194 193 194 196 196 202 204 205 204 203 203 196 201 201 205 207 206 207 208 210 206 206 204 208 211 193 190 183 161 163 155 169
5 15 22 22 25 1 355 335 254 184 171 177 190 194 171 162 167 176 198 197 192 191 193 200 206 202 202 204 199 196 194 192 192 195 196 199 204 202 201 201 202 200 196 204 205 210 207 205 208 210 207 206 205 202 203 209 191 190 170 161 163 161 180
357 2 9 15 25 17 348 344 40 60 181 182 197 179 169 162 168 189 199 202 191 190 198 204 206 203 204 203 199 196 193 194 196 198 198 203 203 199 200 197 195 195 198 202 203 206 205 204 206 207 206 201 203 201 203 197 177 180 169 163 167 164 168
358 357 5 6 4 5 23 51 52 24 343 327 333 318 189 169 175 186 196 194 192 203 205 206 204 201 202 201 196 196 196 196 198 199 202 202 199 195 194 193 196 194 196 199 201 204 204 202 204 206 206 200 199 198 194 185 173 174 172 162 167 170 163
1 6 6 5 11 15 9 4 16 42 56 11 338 334 173 193 192 198 193 183 197 211 212 208 204 201 200 196 195 197 198 199 202 202 202 199 191 189 197 196 192 192 195 195 197 200 201 200 201 203 201 193 189 189 187 173 169 167 175 165 172 172 170
19 15 9 5 2 1 8 9 9 3 9 20 14 358 328 167 196 212 202 202 213 213 214 214 212 210 210 207 205 203 202 201 200 199 199 195 193 193 193 187 189 193 192 193 196 198 201 200 197 194 188 177 181 179 174 164 171 166 163 166 170 178 177
22 17 14 12 8 359 5 14 10 6 3 16 26 8 355 302 223 212 206 222 223 218 212 204 202 198 197 198 202 205 206 206 204 200 197 194 191 192 188 186 190 189 189 190 189 192 196 197 189 183 179 176 169 165 155 156 157 173 168 166 177 183 187
18 18 13 8 5 1 16 21 13 7 13 14 5 14 5 346 261 246 237 239 236 230 221 216 207 198 198 199 200 200 203 201 198 197 197 194 188 188 189 187 184 189 193 187 186 187 190 187 179 182 179 167 168 160 150 153 159 163 180 175 177 183 185
25 19 20 19 17 19 24 19 18 20 14 4 7 358 358 353 339 275 258 274 225 208 206 205 204 205 206 205 202 202 198 196 196 195 195 192 191 192 189 184 183 189 190 186 186 182 179 172 173 173 167 166 163 162 160 158 156 155 153 158 164 173 184
35 26 21 19 6 11 35 36 32 26 17 6 352 350 350 348 342 332 320 320 305 256 210 202 206 211 211 206 201 197 192 192 193 195 195 192 192 192 190 186 183 183 181 184 183 179 172 164 167 163 162 165 163 161 155 157 155 149 147 150 156 164 166
65 64 44 29 12 10 21 40 69 53 38 6 341 338 337 341 341 336 333 318 314 285 229 220 209 210 211 207 199 193 189 191 193 192 193 192 187 185 186 188 184 181 180 184 182 175 171 167 166 166 167 162 155 150 152 152 146 150 156 160 158 155 155
46 54 51 43 34 31 37 30 38 39 48 357 325 329 328 333 337 334 335 332 333 325 269 218 213 213 202 197 195 198 195 190 187 188 186 182 172 127 156 182 183 177 171 156 183 177 174 173 164 162 156 149 148 145 145 145 165 191 182 171 165 158 156
38 35 30 26 32 39 45 30 13 3 359 325 313 318 333 338 339 340 338 346 345 349 342 319 279 199 196 199 199 195 192 196 195 187 176 164 150 139 97 44 74 131 145 130 103 90 76 80 116 142 138 138 147 149 158 181 195 160 154 162 164 162 163
52 41 34 28 29 28 29 23 20 13 13 360 347 345 354 359 0 356 355 354 3 6 358 350 329 309 292 230 210 183 174 151 146 160 157 158 149 133 121 111 52 56 98 120 116 126 136 146 141 147 172 157 138 65 50 90 116 142 155 155 162 161 150
62 55 49 42 43 37 31 23 19 20 11 359 0 1 8 18 5 5 2 5 20 32 28 20 8 342 319 282 178 148 111 112 109 110 136 145 158 148 142 129 117 80 57 93 109 106 108 117 130 136 134 128 124 119 64 106 131 140 149 154 146 137 134